Preview of NWS' New Version of Forecast
This preview is not operational and should not be used for support decisions.
Latest weather observations around

Fairfield / Travis Air Force Base (KSUU)

Using English Units (Switch to International System of Units)
Date/ Time (PDT) Wind (mph) Vis. (mi) Weather Sky Cond. Temp (°F) Rel. Humidity Wind Chill (°F) Heat Index (°F) Pressure Precip. (in)
Air Dwpt 6 hour Altimeter (inHg) Sea level (inHg) 1 hr 3 hr 6 hr
Max Min
Aug 25 21:58   10 Clear CLR 72 50     45%   71 29.89 29.91      
Aug 25 20:58 SW 17 10 Clear CLR 76 49     40%   75 29.88 29.9      
Notice The following observation data may not be complete
Aug 25 19:58 SW 18 10 Clear CLR   53      %     29.87 29.89      
Aug 25 18:58 SW 16 10 Clear CLR 88 51     28%   86 29.87 29.89      
Aug 25 17:58 SW 17 10 Clear CLR 94 56     28%   92 29.88 29.9      
Aug 25 16:58 SW 17 10 Clear CLR 98 57     26%   97 29.89 29.91      
Aug 25 15:58 SW 13 10 Clear CLR 100 57     24%   99 29.9 29.92      
Aug 25 14:58 SW 15 10 Clear CLR 99 57     25%   98 29.91 29.93      
Aug 25 13:58 SW 14 10 Clear CLR 97 55     25%   95 29.92 29.94      
Aug 25 12:58 SW 14 10 Clear CLR 94 54     26%   92 29.93 29.95      
Aug 25 11:58 SW 13 10 Clear CLR 89 55     31%   87 29.95 29.97      
Aug 25 10:58 WSW 14 10 Clear CLR 85 57     39%   84 29.96 29.98      
Aug 25 09:58   10 Clear CLR 80 57     46%   80 29.95 29.97      
Aug 25 08:58 SW 15 10 Clear CLR 74 57     54%   74 29.95 29.97      
Aug 25 07:58   10 Clear CLR 68 56     66%     29.94 29.96      
Aug 25 06:58   10 Clear CLR 63 56     79%     29.93 29.95      
Aug 25 05:58 SW 15 10 Clear CLR 63 57     80%     29.92 29.94      
Aug 25 04:58   10 Clear CLR 64 57     79%     29.91 29.93      
Aug 25 03:58 SW 18 10 Clear CLR 65 57     76%     29.91 29.93      
Aug 25 02:58 SW 20 10 Clear and Windy CLR 65 58     79%     29.91 29.93      
Aug 25 01:58   10 Clear CLR 65 57     73%     29.9 29.92      
Aug 25 00:58   10 Clear CLR 67 56     69%     29.91 29.93      
Aug 24 23:58   10 Clear CLR 68 56     67%     29.9 29.92      
Aug 24 22:58 SW 18 10 Clear CLR 69 56     65%     29.91 29.93      
Aug 24 21:58 SW 16 10 Clear CLR 71 56     60%   71 29.9 29.92      
Aug 24 20:58 SW 20 10 Clear and Windy CLR 73 58     60%   72 29.88 29.9      
Aug 24 19:58 SW 17 10 Clear CLR 77 58     52%   76 29.87 29.89      
Aug 24 18:58 SW 20 10 Clear and Windy CLR 83 58     42%   83 29.86 29.88      
Aug 24 17:58 SW 22 10 Clear and Windy CLR 89 58     35%   88 29.86 29.88      
Aug 24 16:58 WSW 20 10 Clear and Windy CLR 93 58     31%   92 29.86 29.88      
Aug 24 15:58 WSW 18 10 Clear CLR 96 58     29%   95 29.86 29.88      
Aug 24 14:58 WSW 16 10 Clear CLR 96 56     27%   94 29.87 29.89      
Aug 24 13:58 SW 18 10 Clear CLR 95 53     25%   92 29.88 29.9      
Aug 24 12:58 SW 18 10 Clear CLR 91 53     28%   89 29.89 29.91      
Aug 24 11:58 WSW 16 10 Clear CLR 86 55     35%   84 29.9 29.92      
Aug 24 10:58 WSW 15 10 Clear CLR 83 54     36%   82 29.91 29.93      
Aug 24 09:58 SW 14 10 Clear CLR 76 56     51%   75 29.91 29.93      
Aug 24 08:58 SW 15 10 Clear CLR 69 56     63%     29.89 29.91      
Aug 24 07:58   10 Clear CLR 63 56     78%     29.88 29.9      
Aug 24 06:58   10 Clear CLR 60 55     85%     29.85 29.87      
Aug 24 05:58   10 Clear CLR 59 55     85%     29.83 29.85      
Aug 24 04:58   10 Clear CLR 60 55     84%     29.81 29.83      
Aug 24 03:58   10 Clear CLR 61 55     82%     29.8 29.82      
Aug 24 02:58   10 Clear CLR 61 56     83%     29.79 29.81      
Aug 24 01:58   10 Clear CLR 62 57     84%     29.79 29.81      
Aug 24 00:58   10 Clear CLR 63 57     82%     29.78 29.8      
Aug 23 23:58   10 Clear CLR 63 57     80%     29.78 29.8      
Aug 23 22:58   10 Clear CLR 64 57     78%     29.77 29.79      
Aug 23 21:58   10 Clear CLR 65 57     76%     29.77 29.79      
Aug 23 20:58   10 Clear CLR 67 57     72%     29.75 29.77      
Aug 23 19:58 SW 23 10 Clear and Windy CLR 69 57     66%     29.74 29.76      
Aug 23 18:58 SW 22 10 Clear and Windy CLR 76 59     55%   76 29.73 29.75      
Aug 23 17:58 SW 21 10 Clear and Windy CLR 83 59     44%   83 29.73 29.75      
Aug 23 16:58 SW 20 10 Clear and Windy CLR 91 59     35%   90 29.73 29.75      
Aug 23 15:58 WSW 16 10 Clear CLR 94 58     30%   93 29.73 29.75      
Aug 23 14:58 WSW 17 10 Clear CLR 94 54     26%   92 29.74 29.76      
Aug 23 13:58 WSW 15 10 Clear CLR 92 56     30%   90 29.75 29.77      
Aug 23 12:58 WSW 17 10 Clear CLR 90 56     32%   88 29.76 29.78      
Aug 23 11:58 WSW 16 10 Clear CLR 88 57     35%   87 29.77 29.79      
Aug 23 10:58 WSW 14 10 Clear CLR 85 58     40%   84 29.77 29.79      
Aug 23 08:58 SW 17 10 Clear CLR 76 58     53%   76 29.75 29.77      
Aug 23 07:58 SW 16 10 Clear CLR 69 59     69%     29.74 29.76      
Aug 23 06:58 SW 14 10 Clear CLR 63 58     82%     29.72 29.74      
Aug 23 05:58 SW 13 10 Clear CLR 62 57     83%     29.7 29.72      
Aug 23 04:58 W 6 10 Clear CLR 63 57     82%     29.7 29.72      
Aug 23 03:58 SW 13 10 Clear CLR 64 58     80%     29.68 29.7      
Aug 23 02:58 SW 11 10 Clear CLR 64 58     80%     29.68 29.7      
Aug 23 01:58 SW 14 10 Clear CLR 65 58     76%     29.68 29.7      
Aug 23 00:58 SW 16 10 Clear CLR 67 57     71%     29.68 29.7      
Aug 22 23:58 SW 16 10 Clear CLR 69 58     67%     29.69 29.71      
Aug 22 22:58 SW 17 10 Clear CLR 71 57     63%   70 29.68 29.7      
Aug 22 21:58 SW 10 10 Clear CLR 75 57     53%   75 29.68 29.7      
Aug 22 20:58 SW 11 10 Clear CLR 78 58     49%   78 29.67 29.69      
Notice The following observation data may not be complete
May 15 08:58   10 Clear CLR          %              
May 15 02:58   10 Mostly Cloudy SCT013 BKN100 53 48     82%     29.93 29.95      
May 14 13:58 WSW 23 10 Clear and Windy CLR 67 52     58%     29.91 29.93      
May 14 10:58   10 Clear CLR 62 50     65%     29.95 29.97      
May 13 07:38   10 Partly Cloudy SCT016 55 48     77%     29.94 29.96      
May 12 12:58   9 Clear CLR 81 42     25%   80 29.8 29.82      
May 12 11:58 N 13 10 Clear CLR 79 41     26%   78          
May 12 07:58 N 21 10 Clear and Windy CLR 70 40     34%     29.81 29.83      
May 12 03:58 N 18 10 Clear CLR 65 40     40%     29.79 29.81      
May 12 02:58 N 16 10 Clear CLR 65 40     39%     29.79 29.81      
Jun 11 20:58 WSW 8 10 Clear   53 48     81%     29.93 29.95      
Jun 11 17:58 WNW 6 5 Rain OVC060 53 48     81%     29.95   0    
Jun 11 14:58 WSW 16 10 Clear CLR 71 41     34%   69 29.87 29.89      
Jun 10 19:58   10 Clear   63 45     52%     29.86 29.88      
Jun 10 17:58 WSW 21 8 Clear and Windy CLR 70 46     43%     29.85 29.87      
Jun 10 15:58 WSW 22 10 Clear and Windy CLR 73 45     37%   72 29.86 29.88      
Jun 10 13:32 W 16 10 Mostly Clear FEW055 73 45     36%   72 29.89 29.91      
Jun 10 12:03   10 Clear CLR 73 39     29%   72 29.91 29.93      
Jun 09 22:58 SW 11 10 Clear CLR 55 48     77%     29.92 29.94      
Notice The following observation data may not be complete
Jun 09 16:58   10 Clear CLR          %              
Jun 09 15:58 SW 16 10 Clear CLR 72 47     41%   71 29.89 29.91      
Jun 08 11:58 ESE 6 10 Cloudy BKN028 OVC033 65 52     62%     30.02 30.04 0    
Jun 08 11:17 Calm 10 Cloudy OVC028 61 52     72%     30.02 30.04      
Notice The following observation data may not be complete
Jun 08 11:06   9 Light Rain OVC028          %              
Jun 08 10:58 Calm 7 Light Drizzle OVC028 60 51     73%     30.01 30.03 0   0
Jun 07 12:58   10 Mostly Cloudy FEW080 SCT150 BKN180 BKN210 71 52     52%   70 29.84 29.86      
Notice The following observation data may not be complete
Jun 07 05:58   10 Clear CLR          %              
Jun 06 11:58 WSW 16 10 Clear CLR 75 52     44%   75 29.86 29.88      
Jun 06 10:58 SW 17 10 Clear CLR 71 52     50%   70 29.87 29.89      
Jun 06 01:58   10 Clear CLR 58 50     76%     29.82 29.84      
Jun 05 12:58 SSW 6 10 Clear CLR 84 51     32%   82 29.85 29.87